Orbital Elements at Epoch 2459200.5 (2020-Dec-17.0) TDB
Reference: JPL 27 (heliocentric ecliptic J2000)
Element | Value | Uncertainty (1-sigma) | Units |
e | .2427165015491159 | 4.4525e-08 | |
a | 2.682634320412394 | 1.5742e-08 | au |
q | 2.031514703226308 | 1.1913e-07 | au |
i | 28.14113595503616 | 4.5469e-06 | deg |
node | 95.67917681227316 | 1.0944e-05 | deg |
peri | 258.5768470265128 | 1.4627e-05 | deg |
M | 285.0432884858828 | 1.179e-05 | deg |
tp | 2459534.655540052399 (2021-Nov-16.15554005) | 5.377e-05 | TDB |
period | 1604.872892485514 4.39 | 1.4127e-05 3.868e-08 | d yr |
n | .2243168301275607 | 1.9745e-09 | deg/d |
Q | 3.333753937598481 | 1.9563e-08 | au |
|
| | Orbit Determination Parameters
Additional Information
|